sat.trackr.live / text

‹ back to catalog

STARLINK-36733

NORAD 67811 · 2026-032Q

PAYLOAD ACTIVE UNKNOWN

§ Identity

Operator
Country
US
Launch date
2026-02-15
Launch site
AFWTR
Launch vehicle
Mass (kg)
RCS (m²)

Purposes: comms

External: N2YO · Heavens-Above · Gunter

§ Orbital elements

Epoch: 2026-05-25T02:19:19.072128Z

Period
93.91 min
Inclination
97.2847°
Eccentricity
0.0000985
Mean motion
15.33454506 rev/d
Perigee alt
464.8 km
Apogee alt
466.2 km
Semi-major
6,843.7 km
B*
4.7869e-4
RAAN
333.2425°
Arg perigee
102.8204°
Mean anomaly
257.3149°
Rev number
1,667

§ Raw data

STARLINK-367331 67811U 26032Q   26145.09674852  .00015415  00000+0  47869-3 0  99972 67811  97.2847 333.2425 0000985 102.8204 257.3149 15.33454506 16670

JSON: /api/v1/satellites/67811 · /tle

For live sub-satellite position, see the globe view (requires WebGL).

§ Visibility from observer

Set your observer location to see the next 7 days of passes ≥ 10°. The values pass through the URL so the page stays shareable.

No JS? Fill the form by hand. The geolocation button needs JavaScript.